| time (UTC) | temp F | wind direction | speed MPH | gust MPH | rain 1hr in | rain 24hr in | rain mn in | humidity % | barometer mb |
| 20260505235109 | 52 | 119 | 2.0 | 3.0 | 0.00 | 0.25 | 0.00 | 90 | 1017.8 |
| 20260505234030 | 52 | 83 | 1.0 | 3.0 | 0.00 | 0.25 | 0.00 | 90 | 1017.9 |
| 20260505233113 | 53 | 91 | 2.0 | 3.0 | 0.00 | 0.25 | 0.00 | 89 | 1017.8 |
| 20260505232117 | 53 | 112 | 2.0 | 3.0 | 0.00 | 0.25 | 0.00 | 89 | 1017.9 |
| 20260505231037 | 53 | 111 | 2.0 | 3.0 | 0.00 | 0.25 | 0.00 | 89 | 1017.9 |
| 20260505230101 | 53 | 90 | 2.0 | 3.0 | 0.00 | 0.25 | 0.00 | 89 | 1018.0 |
| 20260505225021 | 53 | 99 | 2.0 | 3.0 | 0.00 | 0.25 | 0.00 | 89 | 1017.9 |
| 20260505224044 | 53 | 116 | 2.0 | 4.0 | 0.00 | 0.25 | 0.00 | 88 | 1018.0 |
| 20260505223128 | 54 | 91 | 2.0 | 2.0 | 0.00 | 0.25 | 0.00 | 87 | 1018.0 |
| 20260505222028 | 54 | 69 | 0.0 | 1.0 | 0.00 | 0.25 | 0.00 | 86 | 1018.0 |
| 20260505221053 | 55 | 73 | 1.0 | 2.0 | 0.00 | 0.25 | 0.00 | 84 | 1018.0 |
| 20260505220119 | 55 | 0.0 | 0.0 | 0.00 | 0.25 | 0.00 | 83 | 1018.0 | |
| 20260505215036 | 55 | 0.0 | 1.0 | 0.00 | 0.25 | 0.25 | 81 | 1018.0 | |
| 20260505214100 | 55 | 29 | 1.0 | 2.0 | 0.00 | 0.25 | 0.25 | 81 | 1018.0 |
| 20260505213021 | 55 | 32 | 1.0 | 1.0 | 0.00 | 0.25 | 0.25 | 81 | 1017.9 |
| 20260505212045 | 55 | 36 | 0.0 | 2.0 | 0.00 | 0.25 | 0.25 | 81 | 1018.0 |
| 20260505211108 | 55 | 42 | 1.0 | 2.0 | 0.00 | 0.25 | 0.25 | 81 | 1017.9 |
| 20260505210028 | 56 | 33 | 1.0 | 3.0 | 0.00 | 0.25 | 0.25 | 81 | 1017.9 |
| 20260505205053 | 56 | 26 | 2.0 | 4.0 | 0.00 | 0.25 | 0.25 | 80 | 1017.9 |
| 20260505204136 | 56 | 12 | 2.0 | 6.0 | 0.00 | 0.25 | 0.25 | 80 | 1018.0 |
| 20260505203037 | 56 | 2 | 2.0 | 4.0 | 0.00 | 0.25 | 0.25 | 81 | 1018.0 |
| 20260505202101 | 56 | 354 | 2.0 | 4.0 | 0.00 | 0.25 | 0.25 | 81 | 1017.8 |
| 20260505201020 | 56 | 7 | 2.0 | 3.0 | 0.00 | 0.25 | 0.25 | 80 | 1017.7 |
| 20260505200045 | 56 | 354 | 3.0 | 6.0 | 0.00 | 0.25 | 0.25 | 80 | 1017.6 |
| 20260505195149 | 57 | 349 | 3.0 | 6.0 | 0.00 | 0.25 | 0.25 | 79 | 1017.7 |
| 20260505194029 | 57 | 2 | 2.0 | 8.0 | 0.00 | 0.25 | 0.25 | 78 | 1017.5 |
| 20260505193053 | 57 | 13 | 2.0 | 6.0 | 0.00 | 0.25 | 0.25 | 77 | 1017.5 |
| 20260505192117 | 58 | 23 | 2.0 | 6.0 | 0.00 | 0.25 | 0.25 | 76 | 1017.4 |
| 20260505191037 | 58 | 8 | 3.0 | 6.0 | 0.00 | 0.25 | 0.25 | 74 | 1017.3 |
| 20260505190100 | 59 | 332 | 4.0 | 6.0 | 0.00 | 0.25 | 0.25 | 74 | 1017.4 |
| 20260505185020 | 58 | 310 | 3.0 | 6.0 | 0.00 | 0.25 | 0.25 | 76 | 1017.3 |
| 20260505184045 | 58 | 3 | 2.0 | 8.0 | 0.00 | 0.27 | 0.25 | 76 | 1017.3 |
| 20260505183109 | 59 | 12 | 2.0 | 7.0 | 0.00 | 0.27 | 0.25 | 75 | 1017.1 |
| 20260505182029 | 59 | 357 | 2.0 | 4.0 | 0.00 | 0.27 | 0.25 | 75 | 1017.1 |
| 20260505181053 | 59 | 4 | 3.0 | 7.0 | 0.00 | 0.27 | 0.25 | 75 | 1017.2 |
| 20260505180117 | 59 | 33 | 2.0 | 7.0 | 0.00 | 0.27 | 0.25 | 75 | 1017.2 |
| 20260505175037 | 59 | 346 | 3.0 | 7.0 | 0.00 | 0.27 | 0.25 | 75 | 1017.3 |
| 20260505174100 | 59 | 357 | 3.0 | 10.0 | 0.00 | 0.27 | 0.25 | 75 | 1017.3 |
| 20260505173020 | 59 | 359 | 3.0 | 7.0 | 0.00 | 0.27 | 0.25 | 76 | 1017.3 |
| 20260505172044 | 59 | 344 | 5.0 | 9.0 | 0.00 | 0.27 | 0.25 | 74 | 1017.2 |
| 20260505171109 | 59 | 321 | 5.0 | 9.0 | 0.00 | 0.27 | 0.25 | 76 | 1017.2 |
| 20260505170028 | 60 | 322 | 6.0 | 11.0 | 0.00 | 0.27 | 0.25 | 75 | 1017.2 |
| 20260505165053 | 59 | 10 | 4.0 | 9.0 | 0.00 | 0.27 | 0.25 | 74 | 1017.2 |
| 20260505164136 | 61 | 325 | 5.0 | 9.0 | 0.00 | 0.27 | 0.25 | 70 | 1017.2 |
| 20260505163036 | 61 | 353 | 4.0 | 9.0 | 0.00 | 0.27 | 0.25 | 68 | 1017.1 |
| 20260505162101 | 61 | 324 | 4.0 | 9.0 | 0.00 | 0.27 | 0.25 | 69 | 1017.0 |
| 20260505161041 | 60 | 354 | 5.0 | 9.0 | 0.00 | 0.27 | 0.25 | 71 | 1017.1 |
| 20260505153053 | 60 | 344 | 5.0 | 10.0 | 0.00 | 0.27 | 0.25 | 72 | 1017.1 |
| 20260505152117 | 60 | 340 | 5.0 | 9.0 | 0.00 | 0.30 | 0.25 | 72 | 1017.1 |
| 20260505151036 | 60 | 0 | 4.0 | 9.0 | 0.00 | 0.30 | 0.25 | 73 | 1017.1 |
| 20260505140118 | 58 | 358 | 3.0 | 9.0 | 0.00 | 0.30 | 0.25 | 76 | 1017.2 |
| 20260505124137 | 58 | 357 | 4.0 | 10.0 | 0.04 | 0.30 | 0.25 | 80 | 1016.9 |
| 20260505123037 | 57 | 358 | 4.0 | 9.0 | 0.04 | 0.31 | 0.25 | 83 | 1016.9 |
| 20260505122100 | 58 | 12 | 2.0 | 8.0 | 0.04 | 0.31 | 0.25 | 81 | 1017.0 |
| 20260505121020 | 59 | 4 | 4.0 | 8.0 | 0.00 | 0.27 | 0.21 | 76 | 1017.0 |
| 20260505120044 | 59 | 8 | 2.0 | 8.0 | 0.00 | 0.27 | 0.21 | 73 | 1017.0 |
| 20260505115109 | 59 | 331 | 4.0 | 8.0 | 0.00 | 0.27 | 0.21 | 72 | 1016.9 |
| 20260505114028 | 60 | 2 | 5.0 | 10.0 | 0.00 | 0.27 | 0.21 | 72 | 1017.0 |
| 20260505113112 | 59 | 348 | 3.0 | 8.0 | 0.00 | 0.27 | 0.21 | 73 | 1017.0 |
| 20260505112116 | 59 | 5 | 3.0 | 10.0 | 0.00 | 0.27 | 0.21 | 71 | 1016.9 |
| 20260505111037 | 60 | 340 | 3.0 | 9.0 | 0.00 | 0.27 | 0.21 | 70 | 1016.7 |
| 20260505102028 | 57 | 6 | 4.0 | 9.0 | 0.00 | 0.27 | 0.21 | 80 | 1017.0 |
| 20260505101112 | 58 | 330 | 4.0 | 8.0 | 0.00 | 0.27 | 0.21 | 79 | 1016.7 |
| 20260505100116 | 60 | 341 | 4.0 | 8.0 | 0.00 | 0.27 | 0.21 | 74 | 1016.6 |
| 20260505095036 | 59 | 356 | 2.0 | 7.0 | 0.00 | 0.27 | 0.21 | 77 | 1016.5 |
| 20260505094100 | 58 | 351 | 4.0 | 10.0 | 0.00 | 0.27 | 0.21 | 81 | 1016.5 |
| 20260505093020 | 56 | 10 | 2.0 | 4.0 | 0.00 | 0.27 | 0.21 | 88 | 1016.6 |
| 20260505092104 | 55 | 34 | 0.0 | 2.0 | 0.00 | 0.27 | 0.21 | 90 | 1016.5 |
| 20260505091108 | 54 | 40 | 0.0 | 1.0 | 0.00 | 0.27 | 0.21 | 91 | 1016.5 |
| 20260505090028 | 54 | 79 | 1.0 | 4.0 | 0.00 | 0.27 | 0.21 | 91 | 1016.5 |
| 20260505085052 | 54 | 77 | 2.0 | 4.0 | 0.00 | 0.27 | 0.21 | 92 | 1016.3 |
| 20260505084137 | 53 | 112 | 4.0 | 8.0 | 0.00 | 0.27 | 0.21 | 93 | 1016.4 |
| 20260505083037 | 52 | 139 | 3.0 | 8.0 | 0.00 | 0.27 | 0.21 | 93 | 1016.4 |
| 20260505082100 | 51 | 102 | 3.0 | 8.0 | 0.00 | 0.27 | 0.21 | 94 | 1016.4 |
| 20260505081040 | 51 | 103 | 4.0 | 7.0 | 0.00 | 0.27 | 0.21 | 94 | 1016.4 |
| 20260505080044 | 51 | 123 | 3.0 | 7.0 | 0.01 | 0.27 | 0.21 | 94 | 1016.4 |
| 20260505075109 | 51 | 135 | 4.0 | 8.0 | 0.04 | 0.27 | 0.21 | 94 | 1016.5 |
| 20260505074029 | 51 | 111 | 2.0 | 4.0 | 0.04 | 0.27 | 0.21 | 93 | 1016.5 |
| 20260505073053 | 51 | 109 | 2.0 | 3.0 | 0.04 | 0.27 | 0.21 | 93 | 1016.4 |
| 20260505072116 | 51 | 111 | 2.0 | 3.0 | 0.07 | 0.27 | 0.21 | 93 | 1016.5 |
| 20260505071036 | 51 | 88 | 1.0 | 3.0 | 0.10 | 0.27 | 0.21 | 93 | 1016.3 |
| 20260505070121 | 51 | 107 | 3.0 | 4.0 | 0.10 | 0.26 | 0.20 | 93 | 1016.1 |
| 20260505065020 | 51 | 151 | 3.0 | 6.0 | 0.09 | 0.23 | 0.17 | 93 | 1016.1 |
| 20260505064044 | 50 | 131 | 4.0 | 7.0 | 0.12 | 0.23 | 0.17 | 93 | 1016.1 |
| 20260505063149 | 50 | 93 | 3.0 | 6.0 | 0.14 | 0.23 | 0.17 | 93 | 1016.2 |
| 20260505062029 | 50 | 103 | 2.0 | 6.0 | 0.12 | 0.20 | 0.14 | 93 | 1016.2 |
| 20260505061053 | 50 | 124 | 3.0 | 6.0 | 0.10 | 0.17 | 0.11 | 93 | 1016.0 |
| 20260505060116 | 50 | 142 | 3.0 | 6.0 | 0.10 | 0.16 | 0.10 | 93 | 1016.1 |
| 20260505055036 | 50 | 146 | 4.0 | 6.0 | 0.08 | 0.14 | 0.08 | 92 | 1016.0 |
| 20260505054100 | 50 | 137 | 3.0 | 4.0 | 0.05 | 0.11 | 0.05 | 91 | 1016.1 |
| 20260505053020 | 50 | 98 | 2.0 | 3.0 | 0.03 | 0.09 | 0.03 | 91 | 1016.1 |
| 20260505052044 | 50 | 117 | 3.0 | 4.0 | 0.02 | 0.08 | 0.02 | 90 | 1015.9 |
| 20260505051109 | 50 | 118 | 3.0 | 4.0 | 0.01 | 0.07 | 0.01 | 90 | 1016.0 |
| 20260505041021 | 50 | 92 | 3.0 | 7.0 | 0.00 | 0.06 | 0.00 | 89 | 1016.0 |
| 20260505040044 | 50 | 109 | 3.0 | 6.0 | 0.00 | 0.06 | 0.00 | 90 | 1016.0 |
| 20260505035108 | 50 | 97 | 3.0 | 6.0 | 0.00 | 0.06 | 0.00 | 91 | 1016.1 |
| 20260505034048 | 50 | 113 | 3.0 | 4.0 | 0.00 | 0.06 | 0.00 | 91 | 1016.1 |
| 20260505033133 | 50 | 116 | 3.0 | 6.0 | 0.00 | 0.06 | 0.00 | 91 | 1016.0 |
| 20260505032116 | 50 | 125 | 5.0 | 8.0 | 0.00 | 0.06 | 0.00 | 91 | 1016.3 |
| 20260505031036 | 50 | 127 | 3.0 | 6.0 | 0.00 | 0.06 | 0.00 | 91 | 1016.2 |
| 20260505030100 | 50 | 123 | 3.0 | 6.0 | 0.00 | 0.06 | 0.00 | 91 | 1016.1 |
| 20260505025041 | 50 | 90 | 2.0 | 3.0 | 0.00 | 0.06 | 0.00 | 91 | 1016.4 |
| 20260505024044 | 50 | 104 | 3.0 | 6.0 | 0.00 | 0.06 | 0.00 | 91 | 1016.3 |
| 20260505023109 | 50 | 111 | 3.0 | 6.0 | 0.00 | 0.06 | 0.00 | 91 | 1016.3 |
| 20260505022028 | 50 | 122 | 4.0 | 6.0 | 0.00 | 0.06 | 0.00 | 90 | 1016.2 |
| 20260505021053 | 50 | 118 | 3.0 | 6.0 | 0.00 | 0.06 | 0.00 | 90 | 1016.3 |
| 20260505020117 | 50 | 118 | 3.0 | 7.0 | 0.00 | 0.07 | 0.00 | 90 | 1016.5 |
| 20260505015057 | 51 | 124 | 3.0 | 6.0 | 0.00 | 0.07 | 0.00 | 89 | 1016.5 |
| 20260505014100 | 51 | 127 | 3.0 | 6.0 | 0.00 | 0.07 | 0.00 | 89 | 1016.5 |
| 20260505013021 | 51 | 135 | 3.0 | 4.0 | 0.00 | 0.07 | 0.00 | 89 | 1016.7 |
| 20260505012105 | 51 | 132 | 3.0 | 4.0 | 0.00 | 0.07 | 0.00 | 89 | 1016.7 |
| 20260505011108 | 51 | 142 | 3.0 | 6.0 | 0.00 | 0.07 | 0.00 | 89 | 1016.6 |
| 20260505010029 | 51 | 131 | 3.0 | 6.0 | 0.00 | 0.07 | 0.00 | 90 | 1016.7 |
| 20260505005053 | 51 | 108 | 2.0 | 3.0 | 0.00 | 0.07 | 0.00 | 90 | 1016.9 |
| 20260505004116 | 51 | 105 | 2.0 | 3.0 | 0.00 | 0.07 | 0.00 | 90 | 1016.9 |
| 20260505003036 | 51 | 91 | 2.0 | 3.0 | 0.00 | 0.07 | 0.00 | 90 | 1016.9 |
| 20260505002141 | 51 | 73 | 1.0 | 6.0 | 0.00 | 0.07 | 0.00 | 90 | 1017.0 |
| 20260505001041 | 51 | 123 | 2.0 | 4.0 | 0.00 | 0.07 | 0.00 | 91 | 1017.0 |
| 20260505000045 | 51 | 148 | 4.0 | 6.0 | 0.00 | 0.07 | 0.00 | 91 | 1017.1 |